Location: Asheville, NC
(35.6000°N, 82.5500°W)
Time: 00:26:38
(UTC-04:00)

TIGRISAT - Visible Passes

Search period start: 23 June 2018 00:00
Search period end: 03 July 2018 00:00
Orbit: 606 x 690 km, 97.8° (Epoch: 22 June)

Date Brightness Start Highest point End Pass type
(mag) Time Alt. Az. Time Alt. Az. Time Alt. Az.
23 Jun ? 00:02:30 10° NNW 00:05:47 21° WNW 00:07:15 18° W visible
23 Jun ? 22:50:59 10° NNE 22:55:13 55° E 22:55:39 52° SE visible
24 Jun ? 00:30:07 10° NW 00:31:21 11° WNW 00:32:34 10° W visible
24 Jun ? 23:16:46 10° N 23:21:03 71° WNW 23:21:47 57° SW visible
25 Jun ? 22:07:20 10° NE 22:10:01 16° E 22:10:10 16° E visible
25 Jun ? 23:42:55 10° N 23:46:47 34° WNW 23:47:54 29° WSW visible
26 Jun ? 22:32:11 10° NNE 22:36:01 32° E 22:36:18 32° ESE visible
27 Jun ? 00:09:33 10° NNW 00:12:26 18° WNW 00:14:02 15° W visible
27 Jun ? 22:57:40 10° NNE 23:01:56 68° ESE 23:02:26 61° SE visible
28 Jun ? 23:23:33 10° N 23:27:45 57° WNW 23:28:34 48° WSW visible
29 Jun ? 22:13:42 10° NE 22:16:47 19° E 22:16:56 19° E visible
29 Jun ? 23:49:48 10° NNW 23:53:27 28° WNW 23:54:41 24° W visible
30 Jun ? 22:38:46 10° NNE 22:42:46 39° E 22:43:04 38° ESE visible
01 Jul ? 00:16:41 10° NNW 00:19:05 15° WNW 00:20:48 12° W visible
01 Jul ? 23:04:23 10° NNE 23:08:39 83° ESE 23:09:11 67° S visible
02 Jul ? 21:56:03 10° ENE 21:57:30 12° E 21:57:34 12° E visible
02 Jul ? 23:30:21 10° N 23:34:25 47° WNW 23:35:18 40° WSW visible
